Temp
14 14 14 14 13 14 14 14 15 15 15 15 16 16 17 17 19 20 18 21 21 21 21 22 23 23 23 22 23 23 19 19 24 24 26 28 27 27 27 25 25 25 24 21 21
14 14 14 14 13 13 13 14 14 15 15 15 15 16 17 17 18 16 22 21 21 20 20 21 21 21 20 23 23 21 18 22 24 25 25 26 26 27 26 24 24 23 21 20 20
14 14 14 13 13 13 13 13 14 14 15 15 15 16 16 17 16 21 22 22 22 21 21 20 20 20 23 23 23 22 21 22 26 25 25 25 26 26 24 23 24 22 20 18 17
14 14 14 14 14 14 13 13 13 14 14 15 15 15 16 17 19 22 22 22 22 21 21 21 21 21 22 22 23 23 23 24 25 25 25 25 25 25 24 24 22 21 19 17 16
14 14 14 14 13 13 13 14 13 14 14 14 14 14 16 15 16 21 21 21 21 21 21 21 20 22 22 22 22 23 24 24 25 24 24 24 24 25 23 22 20 19 18 16 16
14 13 13 13 13 11 11 12 13 13 13 13 14 13 13 14 20 21 21 20 21 21 21 21 21 21 21 22 22 23 24 24 23 23 24 24 24 25 23 19 18 17 16 15 15
12 12 12 11 10 9 10 10 11 13 12 12 12 12 11 15 20 20 19 20 20 21 20 21 22 21 21 21 21 23 23 22 23 24 24 22 23 22 23 19 17 16 15 14 14
10 11 11 11 11 10 10 10 11 12 11 11 11 10 11 18 19 18 20 19 21 21 21 21 22 21 21 21 20 22 22 21 22 22 23 23 21 22 21 18 16 15 15 14 13
11 11 10 10 10 10 10 10 11 11 11 12 11 11 12 17 17 20 19 19 21 21 21 22 21 20 20 19 18 19 19 20 21 22 22 21 21 22 20 19 16 15 13 13 12
9 10 10 10 10 10 11 10 10 11 11 10 10 12 14 18 19 20 20 20 20 20 20 20 17 16 16 16 19 19 18 19 20 21 20 20 21 21 20 20 17 14 13 13 12
9 9 9 9 9 10 11 11 11 11 11 13 13 14 17 18 20 20 20 20 19 19 16 18 15 15 18 18 20 20 19 19 20 22 20 21 22 20 20 19 15 14 13 13 12
8 8 8 8 7 8 8 9 11 11 11 13 13 14 15 16 16 17 20 18 17 16 17 17 15 18 19 19 18 19 19 19 19 22 21 19 19 20 20 20 16 15 13 12 12
8 8 8 7 7 7 8 8 10 11 10 12 14 14 15 15 15 16 17 17 17 16 16 16 17 19 18 18 19 19 19 19 20 22 22 19 18 20 21 21 17 16 14 13 11
8 8 7 7 7 7 7 10 10 10 9 12 14 14 16 17 16 18 19 18 17 16 17 16 18 18 18 18 19 18 21 21 21 20 18 20 18 19 19 20 17 15 13 13 12
8 8 7 9 8 7 9 10 10 11 10 16 16 18 17 16 18 17 18 18 17 17 17 16 18 18 17 18 20 19 21 20 21 19 19 19 17 17 19 18 16 14 14 13 11
8 8 7 7 8 9 10 10 10 9 10 16 18 16 15 16 18 19 17 18 18 17 17 17 19 19 19 20 20 21 20 18 17 16 15 18 19 21 17 21 16 15 13 12 10
8 8 7 7 7 9 9 9 8 9 16 16 17 18 17 16 16 18 17 16 16 15 15 17 18 19 20 19 19 20 18 14 14 13 17 19 18 21 20 21 18 15 13 10 9
7 8 7 8 8 9 8 7 8 12 13 17 17 18 17 17 16 17 17 14 17 16 16 15 15 18 20 19 19 19 20 17 16 15 18 19 16 19 19 20 18 16 14 10 8
7 6 7 7 7 7 7 8 8 11 15 15 16 16 16 16 17 17 17 16 16 17 16 15 16 19 21 21 21 18 18 20 17 16 12 15 17 18 16 16 16 14 11 9 8
6 5 6 7 6 7 6 8 8 11 13 13 13 14 15 15 16 16 16 17 17 18 18 17 17 18 20 20 20 19 19 17 13 16 16 17 17 15 15 13 13 12 10 8 8
5 0 5 6 6 6 6 7 8 10 11 12 12 12 13 13 15 15 13 18 16 17 18 17 17 16 18 18 19 18 19 18 18 16 17 17 14 14 15 14 13 12 10 8 7
2 -2 5 6 6 4 6 7 10 10 11 12 12 11 11 12 12 14 15 15 13 14 14 17 16 15 16 18 18 18 19 18 15 15 14 15 16 16 15 15 14 12 10 8 8
0 -2 4 5 5 6 6 7 8 10 11 11 12 12 11 10 10 12 12 11 11 11 10 10 13 14 15 16 18 17 18 19 18 14 15 15 16 16 16 15 15 12 10 8 8
-1 -3 2 4 2 3 4 6 7 8 9 10 9 10 10 10 11 10 11 11 10 10 9 9 11 12 14 14 14 16 18 19 18 15 16 15 16 15 15 14 12 11 9 9 8
-0 -0 1 3 2 4 5 6 7 8 9 10 8 7 9 9 10 10 10 10 10 9 9 7 10 9 9 9 11 13 14 15 16 15 14 16 15 15 14 13 12 11 10 9 9
1 -0 0 1 4 3 4 4 6 6 7 9 9 8 9 8 10 9 9 8 9 9 8 8 9 8 9 8 9 9 9 11 10 11 11 12 12 14 15 14 13 12 11 10 10
2 2 2 2 2 3 4 5 6 7 8 9 9 9 8 9 10 10 10 10 10 9 9 8 8 9 9 9 9 9 11 12 12 12 11 10 13 15 15 14 14 13 13 12 11
Height
827 828 829 829 829 829 830 828 827 825 823 821 818 815 811 807 802 797 794 792 791 789 789 786 784 784 783 783 780 781 814 824 803 799 786 768 774 767 767 775 778 780 785 794 797
824 826 826 826 827 827 827 827 826 824 822 819 817 814 810 806 800 794 792 790 790 788 787 787 785 784 787 784 783 793 815 805 788 782 786 778 773 772 779 781 785 787 794 798 794
821 822 823 823 824 824 825 825 823 823 820 818 815 813 811 806 801 792 790 789 790 789 787 788 787 787 787 784 785 788 802 789 779 777 778 783 777 773 785 793 780 786 792 795 796
817 818 819 819 821 821 822 823 822 821 818 817 814 812 810 807 813 790 791 790 789 789 788 787 787 789 791 792 782 791 782 779 777 773 775 783 781 782 781 781 778 785 790 794 798
812 814 816 816 816 817 818 819 820 819 817 815 814 812 810 810 801 791 791 789 789 788 789 789 790 788 793 789 785 786 779 774 772 774 775 776 784 786 787 783 785 788 792 797 802
807 809 811 811 812 813 814 815 816 816 815 814 813 813 813 815 791 790 789 789 788 788 788 789 788 788 788 784 787 780 777 775 775 777 775 780 782 782 786 788 790 791 797 799 802
799 803 805 807 809 811 812 812 813 813 813 813 812 812 814 799 788 788 787 787 788 787 787 786 786 789 785 786 781 778 784 780 776 775 779 779 790 789 779 788 794 796 799 801 803
798 800 805 807 808 808 811 810 812 811 811 812 811 811 806 787 786 782 783 783 785 786 785 785 785 786 786 782 785 786 785 795 778 774 776 779 798 780 776 785 795 797 799 802 804
799 801 805 806 806 807 809 808 810 809 810 809 810 811 799 785 780 774 777 779 782 784 783 781 783 786 788 797 806 794 804 794 784 770 775 782 786 772 770 778 790 794 797 800 805
797 798 801 803 805 804 805 806 810 807 808 809 809 814 792 780 775 774 775 778 781 782 784 782 789 797 803 805 803 798 802 794 792 776 777 783 779 770 766 770 781 792 797 800 803
796 797 798 800 801 802 804 806 813 807 805 799 797 794 784 780 775 773 776 778 780 784 794 784 800 803 786 787 784 787 790 790 781 767 778 776 771 774 767 773 786 792 794 798 803
791 797 799 799 801 802 802 804 809 810 801 790 789 785 778 780 785 774 777 782 785 789 786 791 794 775 779 783 787 789 792 789 777 764 773 779 777 769 766 765 773 781 790 795 800
792 794 798 800 801 801 798 803 809 807 803 786 776 772 771 773 773 772 773 775 780 784 784 785 778 766 778 782 786 782 786 783 782 765 763 777 784 770 760 760 768 776 780 788 792
789 793 796 798 802 801 800 800 808 811 813 779 771 758 756 762 764 759 759 767 772 779 780 776 768 771 775 779 778 783 766 769 769 778 794 770 792 775 766 762 768 773 780 783 789
788 789 792 794 796 800 799 802 808 813 808 752 754 743 747 757 750 751 746 758 767 768 773 769 762 766 769 765 766 770 759 764 762 773 774 777 789 776 758 765 769 771 775 779 785
782 785 790 795 796 796 800 805 810 818 802 750 741 744 749 752 746 741 751 754 757 766 762 760 751 756 758 752 756 752 762 768 773 779 793 776 777 744 762 746 759 767 771 776 783
779 781 787 791 794 798 799 806 815 810 759 748 741 740 738 746 750 742 751 762 767 779 771 763 751 747 749 758 753 754 765 797 801 804 774 760 773 729 739 732 738 753 764 772 779
781 782 783 788 793 795 801 811 809 770 766 739 740 738 744 742 745 742 746 757 753 756 765 768 765 746 736 746 749 748 749 769 781 786 765 759 766 736 729 723 727 739 751 770 779
781 784 785 787 790 794 800 799 789 774 755 754 747 746 747 743 745 739 744 744 740 744 755 761 750 726 722 723 733 745 748 736 759 766 787 765 745 732 733 730 730 745 759 769 775
780 785 784 787 789 795 795 783 784 765 758 759 761 753 749 747 744 742 742 733 736 732 732 739 747 726 718 719 720 730 732 755 768 764 764 748 748 750 742 743 743 750 758 767 775
783 792 784 787 789 791 787 782 776 765 768 764 766 766 758 755 747 746 752 733 738 731 729 734 743 735 725 718 718 729 730 733 734 743 748 752 754 733 729 734 739 745 754 761 770
784 801 784 786 789 790 783 780 770 765 768 767 765 769 766 761 758 751 744 739 742 748 743 722 734 738 726 713 712 716 718 724 739 746 745 747 734 718 721 724 729 738 752 761 768
787 792 785 784 787 784 783 778 774 766 766 763 761 763 762 767 768 751 750 760 752 757 759 755 737 738 726 722 709 714 708 707 713 730 733 743 730 721 720 725 731 742 754 763 768
788 804 789 787 791 791 788 778 776 766 767 767 768 764 767 764 761 758 758 761 761 761 760 758 746 737 727 728 726 713 701 699 706 723 722 729 726 730 729 731 738 743 753 760 765
785 790 786 786 787 784 785 777 771 766 759 760 768 774 766 765 759 756 760 764 764 763 762 765 752 751 749 751 738 725 716 712 710 718 723 716 727 729 733 736 738 742 750 756 763
782 788 785 785 778 783 781 777 769 763 768 755 758 759 760 765 756 756 756 762 761 760 760 760 754 758 752 753 755 748 746 738 740 737 735 732 734 724 723 730 733 741 749 754 757
777 777 779 779 778 778 774 769 761 762 756 750 751 753 755 747 747 746 749 751 750 752 751 754 755 759 745 750 753 751 737 733 727 730 732 738 724 717 718 720 722 727 729 734 734
Wind_Speed
14 13 12 12 12 12 12 13 14 16 18 21 21 23 24 27 28 24 5 4 7 13 15 17 11 11 8 3 3 3 4 1 3 3 3 3 5 3 3 9 4 4 7 15 25
16 16 15 14 12 13 13 14 15 16 18 20 21 23 23 26 26 14 4 5 9 11 7 6 5 11 3 2 1 4 4 6 4 1 3 4 5 4 5 7 8 12 15 20 25
19 19 18 17 14 14 15 16 15 16 18 20 20 22 22 21 6 3 2 5 6 6 4 7 8 2 2 0 2 2 6 6 3 3 3 4 4 5 10 3 14 19 10 13 23
21 21 20 19 18 18 18 19 16 17 17 19 20 20 18 9 6 3 2 7 5 4 9 7 4 5 2 3 2 3 7 5 5 4 4 4 3 3 3 6 9 14 14 16 15
23 23 23 23 22 22 20 19 18 16 17 17 17 16 7 3 9 14 16 7 7 7 7 3 4 1 2 5 6 5 5 5 5 7 6 6 5 2 2 6 15 17 16 15 13
24 25 24 23 22 16 13 17 18 14 14 15 14 11 2 4 4 10 6 5 8 8 8 4 4 6 6 3 1 4 4 2 4 4 4 6 3 4 7 9 12 17 14 13 13
11 9 12 13 8 7 8 9 11 12 11 11 9 6 2 17 13 8 12 15 13 11 4 13 6 4 4 6 3 4 4 4 3 2 4 6 2 8 6 11 14 15 14 13 13
17 17 12 7 5 2 6 8 10 10 10 8 6 1 7 18 18 24 20 16 15 15 11 11 9 3 3 3 7 4 1 3 3 7 5 8 8 10 9 17 14 14 13 13 11
5 9 7 5 4 4 2 4 6 7 8 5 3 2 9 11 8 14 19 9 11 17 11 8 6 3 4 3 5 3 4 5 5 7 5 7 7 10 12 18 16 15 13 13 12
8 10 10 10 6 5 3 5 7 8 2 2 2 4 7 5 5 5 5 13 5 3 3 2 2 2 1 4 11 6 5 4 6 3 8 8 7 5 11 19 19 15 12 12 12
8 13 13 12 9 7 4 3 3 1 2 7 5 5 7 6 8 2 5 6 3 2 7 3 3 8 19 11 2 4 4 5 5 5 6 16 13 8 10 7 16 13 13 12 11
10 12 11 9 8 6 7 4 3 4 8 15 21 20 29 18 6 6 7 5 5 9 6 3 12 18 9 8 8 11 11 13 10 9 7 6 10 12 10 9 21 20 15 15 12
13 14 12 11 8 5 7 6 2 8 4 7 9 8 11 18 14 16 7 7 6 8 9 12 6 13 13 13 12 14 14 13 10 3 3 6 6 7 6 5 11 16 16 15 19
19 18 16 13 7 7 3 10 2 5 2 7 6 8 7 5 7 27 17 8 7 12 10 11 15 16 9 15 13 17 13 13 15 8 5 6 7 7 9 6 12 17 18 19 18
22 19 19 15 15 6 5 12 0 0 2 7 7 9 9 11 4 7 32 9 14 8 7 8 6 13 20 24 16 13 9 9 7 5 1 5 3 6 8 7 9 16 18 17 16
23 22 19 14 10 7 8 10 7 1 9 4 4 9 9 10 4 3 4 2 7 8 12 10 6 5 7 12 18 8 4 5 4 3 6 6 6 14 8 14 10 13 15 17 16
14 21 23 23 6 11 12 9 2 5 4 4 6 7 9 8 9 6 7 14 10 6 16 13 22 20 11 9 6 10 6 1 2 1 10 10 7 23 5 10 16 23 19 17 17
5 9 22 25 11 18 18 3 5 6 9 9 5 3 8 4 7 12 8 9 19 10 2 9 9 16 15 21 10 13 15 7 8 6 9 10 9 10 5 13 15 24 21 17 15
5 7 6 22 21 19 6 6 8 6 4 4 6 8 12 13 7 8 19 10 12 25 13 7 11 4 13 16 19 10 15 12 3 3 2 5 6 5 6 3 17 19 18 17 15
6 4 3 10 24 17 4 10 6 5 5 6 2 4 2 9 13 8 9 11 18 14 20 5 9 6 5 11 13 11 6 4 1 14 17 7 6 6 3 8 12 17 17 15 13
5 3 1 9 21 2 4 5 7 11 6 3 5 5 4 4 6 4 7 8 5 6 17 23 15 9 3 12 19 9 14 6 6 8 16 15 9 8 13 14 17 15 13 16 15
4 3 2 13 5 2 3 5 4 4 1 7 2 5 5 3 3 5 6 12 7 10 6 18 8 18 30 9 8 5 18 12 7 12 7 6 13 6 9 14 16 16 15 13 13
2 2 3 5 3 6 3 5 8 16 3 7 10 8 1 1 5 3 8 10 9 5 8 9 4 16 17 12 19 15 17 22 14 3 12 10 11 4 7 8 6 10 12 11 13
3 2 2 1 1 2 2 7 8 7 15 13 6 5 5 11 6 4 8 3 5 3 7 8 4 5 16 2 5 6 21 22 20 12 14 9 4 5 6 9 6 11 13 14 15
2 3 4 4 4 8 4 5 10 10 11 8 9 10 7 5 6 8 8 4 4 4 2 3 2 5 8 14 12 11 11 5 4 2 8 17 6 3 6 7 8 12 14 15 15
4 3 2 2 3 7 8 4 14 20 13 12 14 14 16 16 16 5 5 5 5 7 3 4 2 4 3 3 7 7 12 13 7 4 5 2 8 4 9 10 12 12 11 11 12
6 3 3 3 2 4 7 8 12 9 12 23 18 15 19 20 15 5 8 5 7 6 1 1 3 3 3 4 4 5 12 11 11 12 7 6 11 15 8 9 12 17 18 19 20
Wind_Direction
250 257 266 270 279 285 293 303 315 323 328 331 336 337 338 332 329 327 284 274 293 299 303 311 313 337 305 265 205 108 71 290 262 312 246 6 118 310 57 94 76 59 100 110 114
255 258 262 266 271 279 287 294 306 316 322 328 335 336 338 333 329 303 337 353 319 320 313 327 323 351 336 269 289 107 122 219 229 272 1 12 101 121 93 99 103 93 84 102 93
255 258 262 265 268 274 285 287 296 307 316 324 333 335 337 333 325 258 17 15 12 19 10 308 303 252 271 47 244 207 196 198 245 179 87 356 23 10 123 128 156 140 124 97 93
256 258 259 262 266 270 274 280 289 301 311 320 331 335 340 343 313 283 312 329 329 317 325 343 359 321 291 294 272 246 246 198 210 192 119 118 323 28 15 167 137 121 114 97 86
254 257 259 257 258 261 264 273 278 291 304 316 327 339 357 351 251 289 290 291 296 292 294 332 313 245 263 293 317 210 266 211 186 171 154 138 131 156 93 105 112 109 100 97 95
252 256 256 248 241 233 248 258 268 284 301 311 324 344 13 282 259 307 262 285 290 286 288 301 294 296 257 252 198 306 265 291 115 181 190 151 201 136 187 124 111 109 106 104 103
196 212 229 208 209 230 240 263 268 278 295 307 327 354 264 245 267 256 251 273 281 264 281 300 317 8 339 315 351 303 281 318 209 197 217 129 202 212 177 128 124 116 116 111 108
107 108 100 89 83 15 289 279 277 289 293 305 312 340 245 276 283 275 260 277 250 266 268 293 324 268 224 310 350 322 121 247 257 178 236 139 249 230 196 140 137 132 126 122 115
138 108 108 124 93 82 7 323 298 284 287 297 303 188 264 299 270 280 241 239 233 254 266 288 317 215 3 96 341 283 239 224 303 205 162 184 244 237 200 148 150 148 142 132 122
165 160 157 151 140 100 58 317 291 295 352 236 278 313 261 262 255 254 228 211 228 307 284 212 67 100 358 151 222 207 232 249 225 267 185 195 224 248 186 152 161 152 150 142 137
169 180 178 173 176 181 144 69 268 153 208 217 191 247 293 320 319 180 199 188 147 162 196 192 144 208 215 222 250 219 239 236 240 233 172 209 211 212 203 128 156 159 156 152 143
177 192 197 190 185 181 142 103 101 322 293 239 253 243 244 260 291 307 220 168 173 209 159 251 226 228 229 236 230 249 255 259 283 267 172 199 225 207 207 201 171 164 164 158 149
203 195 189 179 166 171 157 186 341 12 256 263 232 235 227 213 225 231 186 197 208 209 196 210 227 208 215 234 240 237 233 249 239 272 267 123 282 267 213 189 160 175 164 161 161
215 194 182 168 150 160 197 213 117 357 314 270 231 244 181 188 263 208 210 173 215 208 217 244 237 250 235 236 225 242 231 244 251 229 214 177 249 242 220 212 162 172 169 168 165
211 190 185 169 143 162 102 160 271 158 299 187 193 174 162 170 171 217 210 195 203 188 171 227 207 214 227 231 226 246 221 229 207 189 229 193 225 240 198 213 195 177 176 172 162
213 187 187 174 160 140 156 145 132 133 246 257 184 181 143 215 221 89 139 190 202 243 259 244 269 212 222 234 224 256 194 47 46 112 247 167 190 241 201 205 181 178 166 161 156
166 191 193 191 196 157 144 106 149 204 270 224 207 186 182 176 222 166 161 183 194 188 238 257 253 255 260 288 252 206 139 239 275 238 241 171 208 242 237 223 181 174 172 167 158
148 184 190 199 192 166 137 108 191 227 247 318 339 106 202 163 240 204 183 176 212 209 232 204 269 213 220 219 222 220 203 204 202 201 241 180 239 246 262 235 180 177 167 152 159
129 158 197 212 195 173 152 197 201 214 241 331 329 281 239 262 283 192 215 219 204 206 200 202 247 212 231 206 196 215 209 197 153 19 73 208 268 301 21 43 150 156 158 164 162
141 133 200 201 188 175 233 199 253 234 1 7 334 354 345 245 237 207 203 235 238 222 220 214 276 213 222 203 231 206 170 145 281 225 240 227 229 226 180 145 145 157 169 163 155
98 72 44 182 184 157 225 228 244 256 350 343 11 327 303 326 342 303 314 280 345 291 210 229 244 259 16 202 214 210 213 224 186 200 229 250 252 209 191 177 175 182 167 158 156
115 72 46 170 183 202 217 206 280 302 214 243 10 237 260 346 264 248 229 218 48 354 318 229 218 247 240 265 287 266 236 204 198 223 221 212 246 308 169 177 178 173 162 162 158
104 172 75 180 205 225 254 247 249 269 244 212 209 223 29 280 321 0 35 16 23 73 4 342 250 239 261 265 253 243 244 225 218 100 208 205 238 199 184 159 166 153 153 156 151
98 78 312 209 209 167 54 268 258 245 246 258 301 277 254 268 206 279 327 35 360 49 39 351 282 249 240 250 291 224 240 223 212 215 222 224 161 69 122 128 103 144 155 162 170
97 215 194 177 236 215 210 266 253 263 214 216 235 234 251 262 260 244 247 293 237 214 108 108 343 358 10 8 358 346 336 17 224 50 218 235 197 92 133 154 155 149 151 162 173
156 160 312 200 184 193 211 235 249 256 263 259 226 234 220 235 234 249 182 190 204 211 167 199 56 357 319 88 348 324 325 330 284 263 246 257 289 199 243 182 191 162 169 185 219
204 191 100 228 189 212 221 233 256 273 258 247 248 229 230 227 231 217 190 224 197 182 220 148 141 207 275 144 90 278 237 250 231 227 223 258 253 261 240 232 191 182 188 211 203